When you browse on this site, cookies collect data to enhance your experience and personalize the content and advertising you see.
Visit our Privacy Policy to learn more. By continuing to use the site, you agree to this use of cookies and data.
  • In Österreich
  • Länderverzeichnis
  • Für 7 Tage
  • Wassertemperatur
  • Wetterkarte
  • News
  • Widgets
  • user-avatar
    Anmelden

    Stündliche Wetter Anastasivka

    Heute, 23 September, Montag

    Zeit Temperatur Niederschläge Wind Luftdruck Luftfeuchtigkeit
    00:00 +10°C° 0 mm 2 m/S 743 mmHg 91%
    01:00 +9°C° 0 mm 2 m/S 743 mmHg 93%
    02:00 +9°C° 0 mm 2 m/S 743 mmHg 93%
    03:00 +9°C° 0 mm 2 m/S 743 mmHg 92%
    04:00 +9°C° 0 mm 3 m/S 743 mmHg 90%
    05:00 +9°C° 0 mm 3 m/S 744 mmHg 88%
    06:00 +9°C° 0 mm 3 m/S 744 mmHg 83%
    07:00 +7°C° 0 mm 4 m/S 744 mmHg 78%
    08:00 +7°C° 0 mm 4 m/S 745 mmHg 71%
    09:00 +7°C° 0 mm 4 m/S 746 mmHg 68%
    10:00 +8°C° 0 mm 4 m/S 746 mmHg 65%
    11:00 +8°C° 0 mm 4 m/S 746 mmHg 61%
    12:00 +10°C° 0 mm 4 m/S 746 mmHg 59%
    13:00 +11°C° 0 mm 3 m/S 746 mmHg 56%
    14:00 +12°C° 0 mm 3 m/S 746 mmHg 53%
    15:00 +12°C° 0 mm 3 m/S 746 mmHg 54%
    16:00 +12°C° 0 mm 3 m/S 745 mmHg 54%
    17:00 +12°C° 0 mm 2 m/S 745 mmHg 55%
    18:00 +10°C° 0 mm 2 m/S 746 mmHg 57%
    19:00 +8°C° 0 mm 2 m/S 746 mmHg 59%
    20:00 +6°C° 0 mm 2 m/S 746 mmHg 61%
    21:00 +5°C° 0 mm 2 m/S 746 mmHg 61%
    22:00 +4°C° 0 mm 3 m/S 746 mmHg 61%
    23:00 +3°C° 0 mm 3 m/S 746 mmHg 61%

    Morgen, 24 September, Dienstag

    Zeit Temperatur Niederschläge Wind Luftdruck Luftfeuchtigkeit
    00:00 +3°C° 0 mm 3 m/S 746 mmHg 63%
    01:00 +2°C° 0 mm 3 m/S 747 mmHg 64%
    02:00 +2°C° 0 mm 3 m/S 747 mmHg 65%
    03:00 +1°C° 0 mm 3 m/S 747 mmHg 68%
    04:00 +1°C° 0 mm 3 m/S 746 mmHg 70%
    05:00 +2°C° 0 mm 2 m/S 746 mmHg 72%
    06:00 +2°C° 0 mm 3 m/S 746 mmHg 68%
    07:00 +3°C° 0 mm 3 m/S 746 mmHg 64%
    08:00 +4°C° 0 mm 3 m/S 746 mmHg 59%
    09:00 +8°C° 0 mm 3 m/S 746 mmHg 53%
    10:00 +10°C° 0 mm 3 m/S 746 mmHg 47%
    11:00 +12°C° 0 mm 3 m/S 746 mmHg 41%
    12:00 +13°C° 0 mm 3 m/S 746 mmHg 40%
    13:00 +13°C° 0 mm 3 m/S 745 mmHg 38%
    14:00 +14°C° 0 mm 3 m/S 745 mmHg 37%
    15:00 +14°C° 0 mm 3 m/S 745 mmHg 41%
    16:00 +14°C° 0 mm 2 m/S 744 mmHg 45%
    17:00 +13°C° 0 mm 2 m/S 744 mmHg 49%
    18:00 +12°C° 0 mm 2 m/S 744 mmHg 51%
    19:00 +9°C° 0 mm 3 m/S 744 mmHg 52%
    20:00 +7°C° 0 mm 3 m/S 744 mmHg 53%
    21:00 +7°C° 0 mm 3 m/S 744 mmHg 53%
    22:00 +5°C° 0 mm 3 m/S 744 mmHg 53%
    23:00 +5°C° 0 mm 3 m/S 744 mmHg 53%

    übermorgen, 25 September, Mittwoch

    Zeit Temperatur Niederschläge Wind Luftdruck Luftfeuchtigkeit
    00:00 +4°C° 0 mm 3 m/S 744 mmHg 53%
    01:00 +4°C° 0 mm 3 m/S 744 mmHg 53%
    02:00 +4°C° 0 mm 3 m/S 744 mmHg 53%
    03:00 +3°C° 0 mm 3 m/S 744 mmHg 53%
    04:00 +3°C° 0 mm 3 m/S 743 mmHg 54%
    05:00 +3°C° 0 mm 3 m/S 743 mmHg 55%
    06:00 +4°C° 0 mm 3 m/S 743 mmHg 53%
    07:00 +5°C° 0 mm 3 m/S 743 mmHg 50%
    08:00 +6°C° 0 mm 4 m/S 743 mmHg 48%
    09:00 +9°C° 0 mm 3 m/S 743 mmHg 47%
    10:00 +12°C° 0 mm 3 m/S 743 mmHg 47%
    11:00 +14°C° 0 mm 3 m/S 742 mmHg 46%
    12:00 +16°C° 0 mm 3 m/S 742 mmHg 47%
    13:00 +17°C° 0 mm 3 m/S 742 mmHg 48%
    14:00 +18°C° 0 mm 3 m/S 741 mmHg 50%
    15:00 +18°C° 0.1 mm 3 m/S 741 mmHg 55%
    16:00 +17°C° 0.1 mm 3 m/S 741 mmHg 60%
    17:00 +17°C° 0.1 mm 2 m/S 740 mmHg 66%
    18:00 +16°C° 0.1 mm 2 m/S 740 mmHg 68%
    19:00 +14°C° 0.1 mm 3 m/S 740 mmHg 71%
    20:00 +13°C° 0.1 mm 3 m/S 740 mmHg 73%
    21:00 +13°C° 0 mm 3 m/S 740 mmHg 76%
    22:00 +12°C° 0 mm 3 m/S 740 mmHg 80%
    23:00 +12°C° 0 mm 3 m/S 740 mmHg 83%

    26 September, Donnerstag

    Zeit Temperatur Niederschläge Wind Luftdruck Luftfeuchtigkeit
    00:00 +12°C° 0.2 mm 3 m/S 740 mmHg 86%
    01:00 +12°C° 0.2 mm 3 m/S 740 mmHg 88%
    02:00 +13°C° 0.2 mm 3 m/S 740 mmHg 91%
    03:00 +12°C° 0.1 mm 3 m/S 740 mmHg 92%
    04:00 +12°C° 0.1 mm 3 m/S 740 mmHg 92%
    05:00 +12°C° 0.1 mm 3 m/S 740 mmHg 93%
    06:00 +13°C° 0 mm 2 m/S 740 mmHg 93%
    07:00 +13°C° 0 mm 2 m/S 740 mmHg 92%
    08:00 +14°C° 0 mm 2 m/S 740 mmHg 91%
    09:00 +14°C° 0 mm 2 m/S 740 mmHg 87%
    10:00 +15°C° 0 mm 1 m/S 740 mmHg 83%
    11:00 +16°C° 0 mm 1 m/S 740 mmHg 78%
    12:00 +16°C° 0 mm 2 m/S 740 mmHg 76%
    13:00 +17°C° 0 mm 2 m/S 740 mmHg 75%
    14:00 +17°C° 0 mm 2 m/S 740 mmHg 73%
    15:00 +16°C° 0 mm 2 m/S 740 mmHg 75%
    16:00 +16°C° 0 mm 2 m/S 740 mmHg 77%
    17:00 +16°C° 0 mm 2 m/S 740 mmHg 79%
    18:00 +14°C° 0 mm 2 m/S 740 mmHg 84%
    19:00 +13°C° 0 mm 1 m/S 741 mmHg 90%
    20:00 +11°C° 0 mm 1 m/S 741 mmHg 95%
    21:00 +11°C° 0 mm 1 m/S 741 mmHg 95%
    22:00 +11°C° 0 mm 1 m/S 741 mmHg 95%
    23:00 +11°C° 0 mm 1 m/S 742 mmHg 95%

    27 September, Freitag

    Zeit Temperatur Niederschläge Wind Luftdruck Luftfeuchtigkeit
    00:00 +11°C° 0 mm 1 m/S 742 mmHg 95%
    01:00 +11°C° 0 mm 1 m/S 742 mmHg 94%
    02:00 +11°C° 0 mm 1 m/S 742 mmHg 93%
    03:00 +11°C° 0 mm 1 m/S 742 mmHg 92%
    04:00 +11°C° 0 mm 1 m/S 742 mmHg 91%
    05:00 +11°C° 0 mm 1 m/S 743 mmHg 90%
    06:00 +12°C° 0 mm 1 m/S 743 mmHg 89%
    07:00 +12°C° 0 mm 1 m/S 743 mmHg 87%
    08:00 +12°C° 0 mm 2 m/S 743 mmHg 86%
    09:00 +13°C° 0 mm 1 m/S 743 mmHg 82%
    10:00 +14°C° 0 mm 1 m/S 744 mmHg 78%
    11:00 +14°C° 0 mm 1 m/S 744 mmHg 74%
    12:00 +15°C° 0 mm 1 m/S 744 mmHg 72%
    13:00 +16°C° 0 mm 1 m/S 744 mmHg 70%
    14:00 +16°C° 0 mm 1 m/S 744 mmHg 67%
    15:00 +15°C° 0 mm 0 m/S 744 mmHg 69%
    16:00 +15°C° 0 mm 0 m/S 744 mmHg 70%
    17:00 +14°C° 0 mm 0 m/S 744 mmHg 71%
    18:00 +14°C° 0 mm 0 m/S 744 mmHg 73%
    19:00 +13°C° 0 mm 0 m/S 745 mmHg 75%
    20:00 +13°C° 0 mm 0 m/S 745 mmHg 77%
    21:00 +13°C° 0 mm 1 m/S 745 mmHg 80%
    22:00 +12°C° 0 mm 1 m/S 745 mmHg 83%
    23:00 +11°C° 0 mm 1 m/S 745 mmHg 87%

    28 September, Samstag

    Zeit Temperatur Niederschläge Wind Luftdruck Luftfeuchtigkeit
    00:00 +11°C° 0 mm 1 m/S 745 mmHg 88%
    01:00 +10°C° 0 mm 1 m/S 745 mmHg 90%
    02:00 +10°C° 0 mm 1 m/S 745 mmHg 92%
    03:00 +9°C° 0 mm 2 m/S 745 mmHg 93%
    04:00 +9°C° 0 mm 2 m/S 745 mmHg 93%
    05:00 +8°C° 0 mm 2 m/S 745 mmHg 94%
    06:00 +9°C° 0 mm 2 m/S 745 mmHg 90%
    07:00 +10°C° 0 mm 2 m/S 745 mmHg 87%
    08:00 +11°C° 0 mm 3 m/S 745 mmHg 83%
    09:00 +13°C° 0 mm 3 m/S 745 mmHg 78%
    10:00 +16°C° 0 mm 3 m/S 746 mmHg 72%
    11:00 +18°C° 0 mm 3 m/S 746 mmHg 66%
    12:00 +17°C° 0.1 mm 3 m/S 745 mmHg 71%
    13:00 +17°C° 0.1 mm 2 m/S 745 mmHg 76%
    14:00 +16°C° 0.1 mm 2 m/S 745 mmHg 80%
    15:00 +16°C° 0.1 mm 2 m/S 744 mmHg 79%
    16:00 +17°C° 0.1 mm 2 m/S 744 mmHg 78%
    17:00 +17°C° 0.1 mm 2 m/S 744 mmHg 77%
    18:00 +16°C° 0 mm 2 m/S 744 mmHg 80%
    19:00 +15°C° 0 mm 2 m/S 744 mmHg 83%
    20:00 +13°C° 0 mm 3 m/S 744 mmHg 86%
    21:00 +13°C° 0.2 mm 3 m/S 744 mmHg 86%
    22:00 +13°C° 0.2 mm 3 m/S 744 mmHg 87%
    23:00 +13°C° 0.2 mm 3 m/S 744 mmHg 87%
    Mehr zeigen